GW0795 Weather Reports


Display with metric or nautical units.
time (UTC)temp
F
wind
direction
speed
MPH
gust
MPH
rain 1hr
in
rain 24hr
in
rain mn
in
humidity
%
barometer
mb
20260509222006 66 281 1.0 4.0 0.00 0.00 0.00 51 1019.1
20260509221503 67 241 2.0 5.0 0.00 0.00 0.00 48 1019.2
20260509221004 66 325 1.0 6.0 0.00 0.00 0.00 49 1019.2
20260509220504 66 292 2.0 6.0 0.00 0.00 0.00 48 1019.2
20260509220010 67 286 3.0 6.0 0.00 0.00 0.00 49 1019.2
20260509215507 66 289 2.0 6.0 0.00 0.00 0.00 49 1019.1
20260509215009 66 273 1.0 4.0 0.00 0.00 0.00 50 1019.2
20260509214514 66 275 2.0 6.0 0.00 0.00 0.00 49 1019.2
20260509214007 65 275 2.0 6.0 0.00 0.00 0.00 51 1019.3
20260509213508 65 313 3.0 5.0 0.00 0.00 0.00 52 1019.4
20260509213026 66 240 2.0 5.0 0.00 0.00 0.00 52 1019.4
20260509212510 66 9 3.0 5.0 0.00 0.00 0.00 54 1019.4
20260509212002 66 319 2.0 6.0 0.00 0.00 0.00 55 1019.5
20260509211506 65 339 3.0 6.0 0.00 0.00 0.00 56 1019.6
20260509211005 65 301 3.0 6.0 0.00 0.00 0.00 55 1019.6
20260509210504 66 279 1.0 6.0 0.00 0.00 0.00 56 1019.6
20260509210009 65 246 2.0 6.0 0.00 0.00 0.00 58 1019.6
20260509205504 65 264 2.0 6.0 0.00 0.00 0.00 58 1019.6
20260509205005 65 319 3.0 6.0 0.00 0.00 0.00 59 1019.6
20260509204510 65 252 3.0 8.0 0.00 0.00 0.00 59 1019.7
20260509204009 65 291 2.0 8.0 0.00 0.00 0.00 60 1019.7
20260509203507 65 265 3.0 6.0 0.00 0.00 0.00 59 1019.8
20260509203028 65 259 2.0 8.0 0.00 0.00 0.00 61 1019.8
20260509202508 65 290 5.0 8.0 0.00 0.00 0.00 58 1019.8
20260509202012 65 265 3.0 7.0 0.00 0.00 0.00 60 1019.9
20260509201522 65 288 3.0 7.0 0.00 0.00 0.00 59 1019.9
20260509201013 65 275 3.0 7.0 0.00 0.00 0.00 58 1020.0
20260509200506 64 273 1.0 6.0 0.00 0.00 0.00 62 1020.1
20260509200008 64 271 2.0 5.0 0.00 0.00 0.00 62 1020.2
20260509195505 63 273 2.0 5.0 0.00 0.00 0.00 62 1020.3
20260509195004 63 275 2.0 6.0 0.00 0.00 0.00 62 1020.2
20260509194510 62 285 2.0 6.0 0.00 0.00 0.00 64 1020.4
20260509194006 63 281 2.0 6.0 0.00 0.00 0.00 63 1020.4
20260509193505 63 287 2.0 5.0 0.00 0.00 0.00 62 1020.6
20260509193024 63 269 2.0 4.0 0.00 0.00 0.00 63 1020.7
20260509192506 63 289 2.0 7.0 0.00 0.00 0.00 63 1020.8
20260509192007 62 311 1.0 7.0 0.00 0.00 0.00 65 1020.7
20260509191532 62 257 2.0 8.0 0.00 0.00 0.00 64 1020.8
20260509191009 62 281 3.0 8.0 0.00 0.00 0.00 65 1020.9
20260509190512 62 265 3.0 8.0 0.00 0.00 0.00 63 1020.9
20260509190029 62 296 3.0 6.0 0.00 0.00 0.00 64 1020.9
20260509185508 62 250 2.0 6.0 0.00 0.00 0.00 66 1020.9
20260509185006 62 263 2.0 6.0 0.00 0.00 0.00 64 1021.0
20260509184527 62 201 3.0 8.0 0.00 0.00 0.00 64 1021.1
20260509184008 61 286 3.0 8.0 0.00 0.00 0.00 65 1021.2
20260509183504 62 339 2.0 5.0 0.00 0.00 0.00 66 1021.1
20260509183012 61 267 2.0 7.0 0.00 0.00 0.00 67 1021.2
20260509182509 61 283 3.0 7.0 0.00 0.00 0.00 66 1021.2
20260509182007 61 275 3.0 6.0 0.00 0.00 0.00 68 1021.2
20260509181517 61 275 2.0 6.0 0.00 0.00 0.00 70 1021.1
20260509181008 60 271 3.0 6.0 0.00 0.00 0.00 69 1021.1
20260509180508 60 275 2.0 6.0 0.00 0.00 0.00 70 1021.2
20260509180022 60 292 2.0 6.0 0.00 0.00 0.00 70 1021.2
20260509175513 60 238 2.0 6.0 0.00 0.00 0.00 72 1021.2
20260509175010 59 298 2.0 6.0 0.00 0.00 0.00 72 1021.2
20260509174526 59 323 2.0 6.0 0.00 0.00 0.00 74 1021.3
20260509174011 59 279 3.0 6.0 0.00 0.00 0.00 73 1021.5
20260509173508 59 286 2.0 6.0 0.00 0.00 0.00 74 1021.4
20260509173009 59 273 3.0 6.0 0.00 0.00 0.00 74 1021.5
20260509172506 58 318 3.0 6.0 0.00 0.00 0.00 76 1021.6
20260509172006 58 12 3.0 6.0 0.00 0.00 0.00 74 1021.6
20260509171515 58 337 2.0 7.0 0.00 0.00 0.00 75 1021.6
20260509171007 58 252 2.0 7.0 0.00 0.00 0.00 76 1021.6
20260509170508 58 279 1.0 7.0 0.00 0.00 0.00 78 1021.6
20260509170023 57 281 2.0 6.0 0.00 0.00 0.00 77 1021.6
20260509165508 57 9 2.0 6.0 0.00 0.00 0.00 79 1021.6
20260509165007 56 281 2.0 6.0 0.00 0.00 0.00 79 1021.7
20260509164525 56 290 2.0 6.0 0.00 0.00 0.00 79 1021.8
20260509164011 56 291 3.0 5.0 0.00 0.00 0.00 79 1021.9
20260509163510 56 297 3.0 5.0 0.00 0.00 0.00 79 1021.8
20260509163034 56 302 3.0 5.0 0.00 0.00 0.00 79 1021.8
20260509162515 56 284 2.0 4.0 0.00 0.00 0.00 79 1021.8
20260509162007 56 292 3.0 4.0 0.00 0.00 0.00 79 1021.9
20260509161514 56 279 2.0 4.0 0.00 0.00 0.00 80 1021.9
20260509161007 55 255 1.0 4.0 0.00 0.00 0.00 82 1021.9
20260509160507 55 323 2.0 4.0 0.00 0.00 0.00 81 1022.0
20260509160016 55 268 2.0 4.0 0.00 0.00 0.00 82 1022.0
20260509155507 55 272 2.0 4.0 0.00 0.00 0.00 82 1022.1
20260509155010 55 284 1.0 6.0 0.00 0.00 0.00 82 1022.2
20260509154524 55 286 2.0 6.0 0.00 0.00 0.00 81 1022.2
20260509154008 55 277 1.0 2.0 0.00 0.00 0.00 81 1022.2
20260509153512 55 248 1.0 2.0 0.00 0.00 0.00 80 1022.2
20260509153031 54 331 1.0 3.0 0.00 0.00 0.00 81 1022.2
20260509152510 54 119 1.0 3.0 0.00 0.00 0.00 82 1022.2
20260509152011 54 110 1.0 4.0 0.00 0.00 0.00 82 1022.2
20260509151526 54 129 1.0 4.0 0.00 0.00 0.00 82 1022.2
20260509151006 54 91 1.0 3.0 0.00 0.00 0.00 82 1022.2
20260509150509 54 94 2.0 3.0 0.00 0.00 0.00 83 1022.3
20260509150018 53 91 0.0 3.0 0.00 0.00 0.00 83 1022.4
20260509145508 53 98 0.0 3.0 0.00 0.00 0.00 85 1022.3
20260509145007 53 101 1.0 3.0 0.00 0.00 0.00 85 1022.5
20260509144524 53 25 1.0 3.0 0.00 0.00 0.00 85 1022.5
20260509144012 53 34 2.0 3.0 0.00 0.00 0.00 85 1022.4
20260509143509 53 103 0.0 1.0 0.00 0.00 0.00 86 1022.3
20260509143022 52 108 0.0 2.0 0.00 0.00 0.00 87 1022.3
20260509142510 52 103 1.0 2.0 0.00 0.00 0.00 88 1022.4
20260509142011 51 101 0.0 2.0 0.00 0.00 0.00 89 1022.6
20260509141528 51 71 0.0 0.0 0.00 0.00 0.00 90 1022.5
20260509141010 50 71 0.0 0.0 0.00 0.00 0.00 90 1022.4
20260509140514 50 71 0.0 0.0 0.00 0.00 0.00 91 1022.5
20260509140027 49 71 0.0 0.0 0.00 0.00 0.00 91 1022.4
20260509135508 48 71 0.0 0.0 0.00 0.00 0.00 91 1022.4
20260509135009 47 71 0.0 0.0 0.00 0.00 0.00 91 1022.5
20260509134519 47 71 0.0 0.0 0.00 0.00 0.00 91 1022.6
20260509134009 47 71 0.0 0.0 0.00 0.00 0.00 91 1022.6
20260509133508 47 71 0.0 0.0 0.00 0.00 0.00 91 1022.6
20260509133003 46 71 0.0 0.0 0.00 0.00 0.00 91 1022.6
20260509132505 46 71 0.0 0.0 0.00 0.00 0.00 91 1022.6
20260509132004 46 71 0.0 0.0 0.00 0.00 0.00 91 1022.7
20260509131511 46 71 0.0 0.0 0.00 0.00 0.00 91 1022.7
20260509131004 46 71 0.0 0.0 0.00 0.00 0.00 91 1022.7
20260509130504 46 71 0.0 0.0 0.00 0.00 0.00 91 1022.7
20260509130027 46 71 0.0 0.0 0.00 0.00 0.00 91 1022.5
20260509125504 46 128 0.0 0.0 0.00 0.00 0.00 91 1022.5
20260509125008 46 130 0.0 0.0 0.00 0.00 0.00 91 1022.6
20260509124520 46 130 0.0 0.0 0.00 0.00 0.00 91 1022.5
20260509124009 46 173 0.0 0.0 0.00 0.00 0.00 91 1022.5
20260509123507 46 173 0.0 0.0 0.00 0.00 0.00 91 1022.5
20260509123021 46 173 0.0 0.0 0.00 0.00 0.00 90 1022.5
20260509122506 46 173 0.0 0.0 0.00 0.00 0.00 91 1022.6
20260509122010 47 173 0.0 0.0 0.00 0.00 0.00 91 1022.6
20260509121510 46 173 0.0 0.0 0.00 0.00 0.00 90 1022.6
20260509121004 46 173 0.0 0.0 0.00 0.00 0.00 90 1022.7
20260509120505 47 173 0.0 0.0 0.00 0.00 0.00 90 1022.6
20260509120013 47 173 0.0 0.0 0.00 0.00 0.00 90 1022.7
20260509115507 47 173 0.0 0.0 0.00 0.00 0.00 90 1022.6
20260509115005 47 173 0.0 0.0 0.00 0.00 0.00 89 1022.6
20260509114516 47 173 0.0 0.0 0.00 0.00 0.00 89 1022.6
20260509114007 47 173 0.0 0.0 0.00 0.00 0.00 89 1022.6
20260509113507 48 173 0.0 0.0 0.00 0.00 0.00 89 1022.6
20260509113017 48 173 0.0 0.0 0.00 0.00 0.00 89 1022.5
20260509112506 48 173 0.0 0.0 0.00 0.00 0.00 89 1022.6
20260509112006 48 173 0.0 0.0 0.00 0.00 0.00 89 1022.7
20260509111526 48 173 0.0 0.0 0.00 0.00 0.00 89 1022.7
20260509111014 48 173 0.0 0.0 0.00 0.00 0.00 89 1022.7
20260509110512 48 173 0.0 0.0 0.00 0.00 0.00 89 1022.7
20260509110007 49 173 0.0 0.0 0.00 0.00 0.00 89 1022.7
20260509105503 49 173 0.0 0.0 0.00 0.00 0.00 88 1022.7
20260509105003 49 173 0.0 0.0 0.00 0.00 0.00 88 1022.8
20260509104511 49 173 0.0 0.0 0.00 0.00 0.00 88 1022.9
20260509104008 49 173 0.0 0.0 0.00 0.00 0.00 88 1022.9
20260509103506 50 173 0.0 0.0 0.00 0.00 0.00 88 1022.9
20260509103019 50 173 0.0 0.0 0.00 0.00 0.00 88 1023.0
20260509102509 50 173 0.0 0.0 0.00 0.00 0.00 87 1022.9
20260509102008 50 173 0.0 0.0 0.00 0.00 0.00 87 1022.9
20260509101531 51 173 0.0 0.0 0.00 0.00 0.00 86 1023.0
20260509101007 51 173 0.0 0.0 0.00 0.00 0.00 86 1022.9
20260509100508 51 173 0.0 0.0 0.00 0.00 0.00 86 1023.0
20260509100031 51 173 0.0 0.0 0.00 0.00 0.00 86 1023.0
20260509095508 51 173 0.0 0.0 0.00 0.00 0.00 85 1023.1
20260509095007 52 173 0.0 0.0 0.00 0.00 0.00 85 1023.2
20260509094528 52 173 0.0 0.0 0.00 0.00 0.00 85 1023.2
20260509094004 52 173 0.0 0.0 0.00 0.00 0.00 85 1023.2
20260509093508 52 173 0.0 0.0 0.00 0.00 0.00 85 1023.2
20260509093014 52 150 0.0 0.0 0.00 0.00 0.00 85 1023.2
20260509092507 52 152 0.0 0.0 0.00 0.00 0.00 85 1023.3
20260509092010 52 153 0.0 0.0 0.00 0.00 0.00 85 1023.4
20260509091522 52 153 0.0 0.0 0.00 0.00 0.00 84 1023.4
20260509091008 52 138 0.0 0.0 0.00 0.00 0.00 85 1023.4
20260509090510 52 138 0.0 1.0 0.00 0.00 0.00 84 1023.4
20260509090035 52 205 0.0 4.0 0.00 0.00 0.00 84 1023.5
20260509085506 52 227 1.0 4.0 0.00 0.00 0.00 85 1023.4
20260509085010 52 189 0.0 2.0 0.00 0.00 0.00 85 1023.4
20260509084527 52 189 1.0 2.0 0.00 0.00 0.00 84 1023.4
20260509084008 52 208 0.0 2.0 0.00 0.00 0.00 84 1023.4
20260509083509 52 172 0.0 2.0 0.00 0.00 0.00 84 1023.5
20260509083044 52 172 0.0 2.0 0.00 0.00 0.00 84 1023.4
20260509082509 52 172 0.0 2.0 0.00 0.00 0.00 85 1023.4
20260509082006 52 186 0.0 2.0 0.00 0.00 0.00 84 1023.4
20260509081518 52 186 0.0 2.0 0.00 0.00 0.00 84 1023.3
20260509081006 52 186 0.0 2.0 0.00 0.00 0.00 84 1023.3
20260509080510 52 186 1.0 2.0 0.00 0.00 0.00 84 1023.3
20260509080025 53 220 0.0 2.0 0.00 0.00 0.00 84 1023.3
20260509075507 53 208 0.0 2.0 0.00 0.00 0.00 84 1023.2
20260509075008 53 219 1.0 2.0 0.00 0.00 0.00 84 1023.2
20260509074508 53 190 0.0 2.0 0.00 0.00 0.00 84 1023.1
20260509074003 53 190 1.0 2.0 0.00 0.00 0.00 84 1023.1
20260509073503 53 192 0.0 2.0 0.00 0.00 0.00 84 1023.2
20260509073020 52 192 0.0 2.0 0.00 0.00 0.00 84 1023.1
20260509072507 52 192 0.0 2.0 0.00 0.00 0.00 84 1023.2
20260509072007 52 192 0.0 2.0 0.00 0.00 0.00 84 1023.1
20260509071518 52 174 0.0 3.0 0.00 0.00 0.00 84 1023.1
20260509071006 52 231 0.0 3.0 0.00 0.00 0.00 84 1023.0
20260509070506 52 228 0.0 3.0 0.00 0.00 0.00 85 1023.1
20260509070020 51 211 0.0 0.0 0.00 0.00 0.00 85 1023.1
20260509065500 51 211 0.0 0.0 0.00 0.00 0.00 85 1023.0
20260509065004 51 211 0.0 0.0 0.00 0.00 0.00 84 1023.0
20260509064504 51 211 0.0 0.0 0.00 0.00 0.00 85 1023.0
20260509064004 51 211 0.0 0.0 0.00 0.00 0.00 84 1023.0
20260509063505 51 211 0.0 0.0 0.00 0.00 0.00 85 1022.9
20260509063018 51 211 0.0 0.0 0.00 0.00 0.00 85 1022.9
20260509062504 50 211 0.0 0.0 0.00 0.00 0.00 84 1022.9
20260509062007 50 211 0.0 0.0 0.00 0.00 0.00 84 1022.9
20260509061517 50 211 0.0 0.0 0.00 0.00 0.00 83 1022.9
20260509061006 50 211 0.0 0.0 0.00 0.00 0.00 84 1022.9
20260509060506 51 211 0.0 0.0 0.00 0.00 0.00 84 1022.8
20260509060017 51 211 0.0 0.0 0.00 0.00 0.00 83 1022.8
20260509055509 51 211 0.0 0.0 0.00 0.00 0.00 82 1022.8
20260509055007 51 211 0.0 0.0 0.00 0.00 0.00 83 1022.9
20260509054522 51 211 0.0 0.0 0.00 0.00 0.00 83 1022.8
20260509054009 51 211 0.0 0.0 0.00 0.00 0.00 82 1022.8
20260509053504 51 211 0.0 0.0 0.00 0.00 0.00 81 1022.9
20260509053004 52 211 0.0 0.0 0.00 0.00 0.00 81 1022.8
20260509052504 52 211 0.0 0.0 0.00 0.00 0.00 81 1022.8
20260509052004 52 211 0.0 0.0 0.00 0.00 0.00 80 1022.8
20260509051512 52 211 0.0 0.0 0.00 0.00 0.00 80 1022.8
20260509051004 52 211 0.0 0.0 0.00 0.00 0.00 79 1022.8
20260509050508 52 213 0.0 2.0 0.00 0.00 0.00 79 1022.8
20260509050020 52 213 0.0 2.0 0.00 0.00 0.00 78 1022.8
20260509045515 52 154 0.0 2.0 0.00 0.00 0.00 78 1022.8
20260509045006 52 189 0.0 0.0 0.00 0.00 0.00 79 1022.8
20260509044522 52 199 0.0 0.0 0.00 0.00 0.00 78 1022.7
20260509044011 52 199 0.0 0.0 0.00 0.00 0.00 78 1022.7
20260509043508 53 199 0.0 0.0 0.00 0.00 0.00 77 1022.7
20260509043024 53 199 0.0 0.0 0.00 0.00 0.00 77 1022.7
20260509042508 53 199 0.0 0.0 0.00 0.00 0.00 77 1022.8
20260509042003 53 199 0.0 0.0 0.00 0.00 0.00 76 1022.7
20260509041506 53 199 0.0 0.0 0.00 0.00 0.00 76 1022.7
20260509041004 53 199 0.0 0.0 0.00 0.00 0.00 76 1022.7
20260509040507 54 199 0.0 0.0 0.00 0.00 0.00 75 1022.6
20260509040025 54 188 0.0 0.0 0.00 0.00 0.00 75 1022.5
20260509035507 54 268 0.0 0.0 0.00 0.00 0.00 75 1022.4
20260509035008 54 268 0.0 0.0 0.00 0.00 0.00 75 1022.3
20260509034518 54 268 0.0 0.0 0.00 0.00 0.00 74 1022.2
20260509034008 54 268 0.0 0.0 0.00 0.00 0.00 74 1022.1
20260509033506 55 275 0.0 0.0 0.00 0.00 0.00 74 1022.2
20260509033018 55 275 0.0 0.0 0.00 0.00 0.00 73 1022.2
20260509032511 55 275 0.0 0.0 0.00 0.00 0.00 72 1022.2
20260509032012 56 275 0.0 0.0 0.00 0.00 0.00 71 1021.9
20260509031547 56 246 0.0 0.0 0.00 0.00 0.00 71 1021.8
20260509031012 56 246 0.0 0.0 0.00 0.00 0.00 70 1021.8
20260509030506 56 265 0.0 0.0 0.00 0.00 0.00 69 1021.8
20260509030012 56 188 0.0 1.0 0.00 0.00 0.00 69 1021.8
20260509025503 57 188 0.0 3.0 0.00 0.00 0.00 68 1021.7
20260509025007 57 208 0.0 3.0 0.00 0.00 0.00 67 1021.7
20260509024514 57 218 0.0 2.0 0.00 0.00 0.00 66 1021.7
20260509024008 58 208 0.0 2.0 0.00 0.00 0.00 66 1021.7
20260509023509 58 175 0.0 2.0 0.00 0.00 0.00 66 1021.8
20260509023024 58 175 0.0 4.0 0.00 0.00 0.00 66 1021.7
20260509022507 58 189 1.0 4.0 0.00 0.00 0.00 66 1021.7
20260509022006 58 204 1.0 3.0 0.00 0.00 0.00 65 1021.7
20260509021534 58 195 1.0 7.0 0.00 0.00 0.00 65 1021.7
20260509021010 58 218 1.0 7.0 0.00 0.00 0.00 65 1021.7
20260509020508 58 219 2.0 7.0 0.00 0.00 0.00 64 1021.7
20260509020024 58 213 1.0 7.0 0.00 0.00 0.00 63 1021.7
20260509015509 58 229 2.0 7.0 0.00 0.00 0.00 63 1021.8
20260509015010 59 205 2.0 6.0 0.00 0.00 0.00 62 1021.8
20260509014511 59 206 1.0 2.0 0.00 0.00 0.00 62 1021.8
20260509014010 59 235 1.0 2.0 0.00 0.00 0.00 61 1021.6
20260509013507 59 227 0.0 2.0 0.00 0.00 0.00 62 1021.5
20260509013016 59 216 0.0 4.0 0.00 0.00 0.00 61 1021.5
20260509012510 59 216 1.0 6.0 0.00 0.00 0.00 61 1021.7
20260509012010 59 225 0.0 6.0 0.00 0.00 0.00 61 1021.6
20260509011523 59 156 0.0 6.0 0.00 0.00 0.00 61 1021.6
20260509011006 59 234 1.0 5.0 0.00 0.00 0.00 60 1021.6
20260509010509 60 142 0.0 2.0 0.00 0.00 0.00 61 1021.7
20260509010022 60 310 0.0 2.0 0.00 0.00 0.00 59 1021.7
20260509005511 59 223 1.0 4.0 0.00 0.00 0.00 60 1021.7
20260509005011 60 212 1.0 4.0 0.00 0.00 0.00 59 1021.8
20260509004536 59 213 1.0 4.0 0.00 0.00 0.00 60 1021.7
20260509004016 59 211 0.0 4.0 0.00 0.00 0.00 59 1021.7
20260509003506 60 209 1.0 7.0 0.00 0.00 0.00 59 1021.7
20260509003014 60 205 2.0 7.0 0.00 0.00 0.00 58 1021.8
20260509002507 60 203 1.0 4.0 0.00 0.00 0.00 58 1021.8
20260509002010 60 209 1.0 4.0 0.00 0.00 0.00 59 1021.8
20260509001505 59 208 1.0 8.0 0.00 0.00 0.00 59 1021.8
20260509001004 59 227 3.0 8.0 0.00 0.00 0.00 59 1021.8
20260509000503 59 192 2.0 6.0 0.00 0.00 0.00 58 1021.8
20260509000004 60 213 1.0 5.0 0.00 0.00 0.00 59 1021.7
20260508235505 60 254 1.0 2.0 0.00 0.00 0.00 58 1021.7
20260508235006 60 238 1.0 3.0 0.00 0.00 0.00 57 1021.7
20260508234512 60 281 0.0 7.0 0.00 0.00 0.00 58 1021.7
20260508234003 61 205 1.0 7.0 0.00 0.00 0.00 54 1021.7
20260508233508 62 261 2.0 7.0 0.00 0.00 0.00 55 1021.6
20260508233012 62 294 1.0 6.0 0.00 0.00 0.00 55 1021.7
20260508232505 61 242 2.0 6.0 0.00 0.00 0.00 54 1021.6
20260508232009 62 227 1.0 4.0 0.00 0.00 0.00 54 1021.6
20260508231515 62 298 2.0 8.0 0.00 0.00 0.00 54 1021.7
20260508231008 61 161 1.0 8.0 0.00 0.00 0.00 55 1021.7
20260508230508 61 140 2.0 7.0 0.00 0.00 0.00 56 1021.8
20260508230004 61 207 2.0 8.0 0.00 0.00 0.00 53 1021.8
20260508225504 61 196 2.0 8.0 0.00 0.00 0.00 54 1021.7
20260508225004 62 153 1.0 9.0 0.00 0.00 0.00 54 1021.7
20260508224508 61 173 4.0 9.0 0.00 0.00 0.00 53 1021.7
20260508224003 62 213 1.0 7.0 0.00 0.00 0.00 53 1021.8
20260508223503 62 248 1.0 7.0 0.00 0.00 0.00 54 1021.9
20260508223018 61 287 0.0 9.0 0.00 0.00 0.00 54 1021.9
20260508222503 61 147 2.0 10.0 0.00 0.00 0.00 53 1021.8